Date,TemperatureHighF,TemperatureAvgF,TemperatureLowF,DewpointHighF,DewpointAvgF,DewpointLowF,HumidityHigh,HumidityAvg,HumidityLow,PressureMaxIn,PressureMinIn,WindSpeedMaxMPH,WindSpeedAvgMPH,GustSpeedMaxMPH,PrecipitationSumIn
2013-1-1,48,46,42,47,40,29,96,80,52,30.14,29.93,1,0,4,0.00
2013-1-2,47,43,38,46,40,37,100,90,73,30.21,29.95,2,0,4,0.00
2013-1-3,42,37,29,38,35,27,95,91,79,30.30,30.17,0,0,3,0.00
2013-1-4,48,36,26,28,25,22,96,68,38,30.36,30.23,2,0,5,0.05
2013-1-5,49,37,27,32,26,22,84,64,39,30.42,30.27,2,0,6,0.08
2013-1-6,52,43,38,39,36,30,90,75,57,30.27,30.08,1,0,2,0.00
2013-1-7,50,39,31,34,31,28,91,73,49,30.46,30.21,2,0,6,0.03
2013-1-8,55,40,28,43,35,26,95,81,58,30.51,30.41,1,0,1,0.15
2013-1-9,65,50,34,55,44,33,96,83,67,30.48,30.38,2,0,4,0.00
2013-1-10,61,53,45,50,43,36,94,71,43,30.56,30.44,3,0,6,0.00
2013-1-11,48,44,40,46,41,36,100,90,62,30.45,30.18,1,0,4,0.00
2013-1-12,70,58,46,64,56,46,98,94,79,30.19,30.11,1,0,3,0.00
2013-1-13,73,63,54,62,59,53,98,87,67,30.14,30.05,2,0,7,0.00
2013-1-14,64,62,51,62,59,50,97,92,85,30.17,30.08,3,0,6,0.00
2013-1-15,51,43,41,49,42,40,98,96,94,30.26,30.11,4,1,12,0.00
2013-1-16,49,44,39,49,43,38,98,98,97,30.10,29.99,1,0,4,0.00
2013-1-17,50,44,33,49,44,32,98,97,93,30.18,29.93,6,1,15,0.00
2013-1-18,42,34,27,34,30,25,97,86,57,30.57,30.18,1,0,4,0.01
2013-1-19,52,37,26,33,28,24,95,73,41,30.54,30.18,2,0,5,0.02
2013-1-20,59,47,38,37,32,29,75,58,39,30.18,30.01,3,1,6,0.00
2013-1-21,58,43,29,34,28,19,95,60,33,30.11,29.88,3,0,6,0.03
2013-1-22,41,31,23,20,8,-3,64,38,20,30.31,29.98,3,1,6,0.01
2013-1-23,40,28,16,18,12,5,79,54,34,30.42,30.09,3,0,4,0.36
2013-1-24,36,30,22,26,13,4,72,50,30,30.55,30.00,4,1,10,0.05
2013-1-25,25,22,18,23,13,4,92,68,47,30.56,30.19,1,0,4,0.00
2013-1-26,36,32,26,34,30,25,95,92,87,30.45,30.25,0,0,2,0.19
2013-1-27,39,30,22,28,25,20,95,80,59,30.64,30.44,3,0,5,0.11
2013-1-28,51,42,30,47,36,27,93,81,58,30.53,30.25,3,0,7,0.15
2013-1-29,72,59,48,57,52,46,93,79,55,30.26,30.06,3,1,10,0.02
2013-1-30,72,66,60,64,61,57,93,84,74,30.07,29.37,8,4,18,0.00
2013-1-31,60,45,33,57,30,21,92,59,37,30.02,29.43,5,2,13,0.00